Time,TemperatureF,DewpointF,PressureIn,WindDirection,WindDirectionDegrees,WindSpeedMPH,WindSpeedGustMPH,Humidity,HourlyPrecipIn,Conditions,Clouds,dailyrainin,SoftwareType,DateUTC
2013-04-22 10:12:00,32.0,25.0,-100.00,NNE,25,8.0,-999.0,74,0.00,,,0.00,,2013-04-22 15:12:00,
2013-04-22 10:22:00,32.0,25.0,-100.00,NE,35,9.0,14.0,72,0.00,,,0.00,,2013-04-22 15:22:00,
2013-04-22 10:33:00,32.0,23.0,-100.00,NNE,25,11.0,13.0,71,0.00,,,0.00,,2013-04-22 15:33:00,
2013-04-22 10:43:00,32.0,23.0,-100.00,NNE,25,7.0,14.0,70,0.00,,,0.00,,2013-04-22 15:43:00,
2013-04-22 10:53:00,32.0,23.0,-100.00,NNE,30,9.0,12.0,69,0.00,,,0.00,,2013-04-22 15:53:00,
2013-04-22 11:02:00,33.0,23.0,-100.00,NNE,30,9.0,15.0,67,0.00,,,0.00,,2013-04-22 16:02:00,
2013-04-22 11:12:00,33.0,23.0,-100.00,NNE,25,8.0,15.0,67,0.00,,,0.00,,2013-04-22 16:12:00,
2013-04-22 11:23:00,33.0,23.0,-100.00,North,5,9.0,12.0,66,0.00,,,0.00,,2013-04-22 16:23:00,
2013-04-22 11:33:00,33.0,23.0,-100.00,NNE,20,9.0,12.0,66,0.00,,,0.00,,2013-04-22 16:33:00,
2013-04-22 11:42:00,34.0,23.0,-100.00,NNE,25,10.0,16.0,65,0.00,,,0.00,,2013-04-22 16:42:00,
2013-04-22 11:52:00,34.0,23.0,-100.00,NNE,15,10.0,15.0,65,0.00,,,0.00,,2013-04-22 16:52:00,
2013-04-22 12:02:00,34.0,23.0,-100.00,NNE,20,14.0,20.0,64,0.00,,,0.00,,2013-04-22 17:02:00,
2013-04-22 12:12:00,33.0,23.0,-100.00,NNE,25,15.0,21.0,63,0.00,,,0.00,,2013-04-22 17:12:00,
2013-04-22 12:22:00,33.0,23.0,-100.00,NNE,15,16.0,20.0,65,0.00,,,0.00,,2013-04-22 17:22:00,
2013-04-22 12:31:00,32.0,23.0,-100.00,NNE,25,15.0,21.0,69,0.00,,,0.00,,2013-04-22 17:31:00,
2013-04-22 12:42:00,32.0,25.0,-100.00,NNE,25,14.0,21.0,73,0.00,,,0.00,,2013-04-22 17:42:00,
2013-04-22 12:52:00,31.0,25.0,-100.00,NE,35,17.0,22.0,75,0.00,,,0.00,,2013-04-22 17:52:00,
2013-04-22 13:01:00,31.0,25.0,-100.00,NE,45,15.0,22.0,76,0.00,,,0.00,,2013-04-22 18:01:00,
2013-04-22 13:12:00,31.0,25.0,-100.00,NNE,30,16.0,21.0,77,0.00,,,0.00,,2013-04-22 18:12:00,
2013-04-22 13:21:00,30.0,25.0,-100.00,NE,40,12.0,18.0,82,0.00,,,0.00,,2013-04-22 18:21:00,
2013-04-22 13:32:00,30.0,27.0,-100.00,NNE,25,12.0,19.0,86,0.00,,,0.00,,2013-04-22 18:32:00,
2013-04-22 13:42:00,30.0,27.0,-100.00,NE,35,8.0,15.0,89,0.00,,,0.00,,2013-04-22 18:42:00,
2013-04-22 13:52:00,29.0,27.0,-100.00,NNE,30,11.0,15.0,91,0.00,,,0.00,,2013-04-22 18:52:00,
2013-04-22 14:01:00,29.0,28.0,-100.00,NE,45,9.0,17.0,92,0.00,,,0.00,,2013-04-22 19:01:00,
2013-04-22 14:12:00,30.0,28.0,-100.00,NE,45,6.0,12.0,92,0.00,,,0.00,,2013-04-22 19:12:00,
2013-04-22 14:21:00,30.0,28.0,-100.00,NNE,30,6.0,9.0,93,0.00,,,0.00,,2013-04-22 19:21:00,
2013-04-22 14:32:00,30.0,28.0,-100.00,NNE,30,7.0,10.0,93,0.00,,,0.00,,2013-04-22 19:32:00,
2013-04-22 14:42:00,30.0,28.0,-100.00,NNE,30,5.0,9.0,93,0.00,,,0.00,,2013-04-22 19:42:00,
2013-04-22 14:52:00,31.0,28.0,-100.00,NNE,30,6.0,7.0,93,0.00,,,0.00,,2013-04-22 19:52:00,
2013-04-22 15:02:00,31.0,28.0,-100.00,NNE,30,7.0,8.0,93,0.00,,,0.00,,2013-04-22 20:02:00,
2013-04-22 15:11:00,31.0,28.0,-100.00,NNE,30,7.0,9.0,93,0.00,,,0.00,,2013-04-22 20:11:00,
2013-04-22 15:22:00,31.0,30.0,-100.00,NNE,30,6.0,8.0,93,0.00,,,0.00,,2013-04-22 20:22:00,
2013-04-22 15:32:00,32.0,30.0,-100.00,NE,40,6.0,7.0,93,0.00,,,0.00,,2013-04-22 20:32:00,
2013-04-22 15:42:00,32.0,30.0,-100.00,NE,45,4.0,6.0,93,0.00,,,0.00,,2013-04-22 20:42:00,
2013-04-22 15:51:00,32.0,30.0,-100.00,NE,35,4.0,7.0,93,0.00,,,0.00,,2013-04-22 20:51:00,
2013-04-22 16:02:00,32.0,30.0,-100.00,NNW,335,5.0,7.0,92,0.00,,,0.00,,2013-04-22 21:02:00,
2013-04-22 16:11:00,31.0,28.0,-100.00,North,10,14.0,19.0,90,0.00,,,0.00,,2013-04-22 21:11:00,
2013-04-22 16:21:00,31.0,28.0,-100.00,North,5,13.0,20.0,90,0.00,,,0.00,,2013-04-22 21:21:00,
2013-04-22 16:32:00,30.0,28.0,-100.00,NNE,15,12.0,18.0,91,0.00,,,0.00,,2013-04-22 21:32:00,
2013-04-22 16:42:00,31.0,28.0,-100.00,NNE,30,10.0,12.0,92,0.00,,,0.00,,2013-04-22 21:42:00,
2013-04-22 16:53:00,31.0,28.0,-100.00,North,10,10.0,16.0,92,0.00,,,0.00,,2013-04-22 21:53:00,
2013-04-22 17:02:00,31.0,28.0,-100.00,North,5,11.0,14.0,93,0.00,,,0.00,,2013-04-22 22:02:00,
2013-04-22 17:12:00,31.0,28.0,-100.00,NNE,20,9.0,13.0,93,0.00,,,0.00,,2013-04-22 22:12:00,
2013-04-22 17:22:00,31.0,28.0,-100.00,North,10,11.0,17.0,93,0.00,,,0.00,,2013-04-22 22:22:00,
2013-04-22 17:33:00,31.0,28.0,-100.00,North,0,11.0,15.0,93,0.00,,,0.00,,2013-04-22 22:33:00,
2013-04-22 17:42:00,31.0,28.0,-100.00,North,0,10.0,15.0,94,0.00,,,0.00,,2013-04-22 22:42:00,
2013-04-22 17:52:00,30.0,28.0,-100.00,North,0,15.0,17.0,94,0.00,,,0.00,,2013-04-22 22:52:00,
2013-04-22 18:02:00,30.0,28.0,-100.00,North,0,11.0,14.0,93,0.00,,,0.00,,2013-04-22 23:02:00,
2013-04-22 18:11:00,30.0,28.0,-100.00,North,0,12.0,19.0,94,0.00,,,0.00,,2013-04-22 23:11:00,
2013-04-22 18:21:00,29.0,28.0,-100.00,North,5,13.0,19.0,93,0.00,,,0.00,,2013-04-22 23:21:00,
2013-04-22 18:32:00,29.0,28.0,-100.00,North,0,13.0,16.0,94,0.00,,,0.00,,2013-04-22 23:32:00,
2013-04-22 18:42:00,29.0,28.0,-100.00,North,5,11.0,15.0,94,0.00,,,0.00,,2013-04-22 23:42:00,
2013-04-22 18:52:00,30.0,28.0,-100.00,North,0,7.0,12.0,93,0.00,,,0.00,,2013-04-22 23:52:00,
2013-04-22 19:02:00,29.0,28.0,-100.00,North,0,11.0,14.0,93,0.00,,,0.00,,2013-04-23 00:02:00,
2013-04-22 19:12:00,29.0,27.0,-100.00,North,5,11.0,15.0,92,0.00,,,0.00,,2013-04-23 00:12:00,
2013-04-22 19:21:00,30.0,25.0,-100.00,North,0,12.0,19.0,79,0.00,,,0.00,,2013-04-23 00:21:00,
2013-04-22 19:31:00,30.0,23.0,-100.00,North,5,13.0,19.0,74,0.00,,,0.00,,2013-04-23 00:31:00,
2013-04-22 19:42:00,30.0,23.0,-100.00,North,0,11.0,16.0,73,0.00,,,0.00,,2013-04-23 00:42:00,
2013-04-22 19:51:00,30.0,23.0,-100.00,North,0,12.0,19.0,72,0.00,,,0.00,,2013-04-23 00:51:00,
2013-04-22 20:01:00,30.0,23.0,-100.00,North,0,13.0,18.0,71,0.00,,,0.00,,2013-04-23 01:01:00,
2013-04-22 20:11:00,30.0,23.0,-100.00,North,0,12.0,20.0,71,0.00,,,0.00,,2013-04-23 01:11:00,
2013-04-22 20:21:00,30.0,23.0,-100.00,North,0,14.0,21.0,71,0.00,,,0.00,,2013-04-23 01:21:00,
2013-04-22 20:32:00,31.0,23.0,-100.00,North,0,15.0,19.0,71,0.00,,,0.00,,2013-04-23 01:32:00,
2013-04-22 20:42:00,30.0,23.0,-100.00,North,0,12.0,17.0,72,0.00,,,0.00,,2013-04-23 01:42:00,
2013-04-22 20:52:00,31.0,23.0,-100.00,North,0,14.0,18.0,72,0.00,,,0.00,,2013-04-23 01:52:00,
2013-04-22 21:01:00,30.0,23.0,-100.00,North,0,14.0,21.0,72,0.00,,,0.00,,2013-04-23 02:01:00,
2013-04-22 21:12:00,30.0,23.0,-100.00,North,0,15.0,20.0,72,0.00,,,0.00,,2013-04-23 02:12:00,
2013-04-22 21:21:00,30.0,23.0,-100.00,North,0,16.0,22.0,73,0.00,,,0.00,,2013-04-23 02:21:00,
2013-04-22 21:32:00,30.0,23.0,-100.00,North,0,12.0,19.0,73,0.00,,,0.00,,2013-04-23 02:32:00,
2013-04-22 21:42:00,30.0,23.0,-100.00,North,0,13.0,22.0,73,0.00,,,0.00,,2013-04-23 02:42:00,
2013-04-22 21:52:00,29.0,21.0,-100.00,North,0,12.0,20.0,73,0.00,,,0.00,,2013-04-23 02:52:00,
2013-04-22 22:01:00,29.0,21.0,-100.00,North,350,11.0,16.0,73,0.00,,,0.00,,2013-04-23 03:01:00,
2013-04-22 22:11:00,29.0,21.0,-100.00,North,0,12.0,17.0,73,0.00,,,0.00,,2013-04-23 03:11:00,
2013-04-22 22:21:00,29.0,21.0,-100.00,North,0,13.0,21.0,74,0.00,,,0.00,,2013-04-23 03:21:00,
2013-04-22 22:33:00,29.0,21.0,-100.00,North,355,14.0,18.0,73,0.00,,,0.00,,2013-04-23 03:33:00,
2013-04-22 22:43:00,29.0,21.0,-100.00,North,0,15.0,19.0,74,0.00,,,0.00,,2013-04-23 03:43:00,
2013-04-22 22:52:00,28.0,21.0,-100.00,North,0,14.0,19.0,74,0.00,,,0.00,,2013-04-23 03:52:00,
2013-04-22 23:03:00,28.0,21.0,-100.00,North,0,13.0,19.0,74,0.00,,,0.00,,2013-04-23 04:03:00,
2013-04-22 23:12:00,28.0,21.0,-100.00,North,0,12.0,19.0,75,0.00,,,0.00,,2013-04-23 04:12:00,
2013-04-22 23:23:00,28.0,21.0,-100.00,North,0,14.0,20.0,75,0.00,,,0.00,,2013-04-23 04:23:00,
2013-04-22 23:33:00,28.0,21.0,-100.00,North,0,14.0,19.0,75,0.00,,,0.00,,2013-04-23 04:33:00,
2013-04-22 23:43:00,28.0,21.0,-100.00,North,0,13.0,17.0,76,0.00,,,0.00,,2013-04-23 04:43:00,
2013-04-22 23:52:00,28.0,21.0,-100.00,North,0,12.0,19.0,76,0.00,,,0.00,,2013-04-23 04:52:00,